| time (UTC) | temp F | wind direction | speed MPH | gust MPH | rain 1hr in | rain 24hr in | rain mn in | humidity % | barometer mb |
| 20260508145014 | 58 | 228 | 4.0 | 10.0 | 0.00 | 0.00 | 0.00 | 42 | 1009.7 |
| 20260508144529 | 58 | 155 | 4.0 | 10.0 | 0.00 | 0.00 | 0.00 | 43 | 1009.6 |
| 20260508144013 | 58 | 146 | 3.0 | 11.0 | 0.00 | 0.00 | 0.00 | 43 | 1009.7 |
| 20260508143510 | 58 | 177 | 4.0 | 11.0 | 0.00 | 0.00 | 0.00 | 46 | 1009.7 |
| 20260508143028 | 57 | 133 | 2.0 | 9.0 | 0.00 | 0.00 | 0.00 | 47 | 1009.7 |
| 20260508142511 | 57 | 174 | 4.0 | 9.0 | 0.00 | 0.00 | 0.00 | 49 | 1009.8 |
| 20260508142011 | 57 | 134 | 4.0 | 9.0 | 0.00 | 0.00 | 0.00 | 51 | 1009.8 |
| 20260508141528 | 56 | 167 | 4.0 | 7.0 | 0.00 | 0.00 | 0.00 | 50 | 1009.9 |
| 20260508141013 | 56 | 192 | 3.0 | 7.0 | 0.00 | 0.00 | 0.00 | 53 | 1009.8 |
| 20260508140513 | 56 | 153 | 3.0 | 8.0 | 0.00 | 0.00 | 0.00 | 55 | 1009.8 |
| 20260508140029 | 55 | 186 | 4.0 | 8.0 | 0.00 | 0.00 | 0.00 | 52 | 1010.0 |
| 20260508135512 | 55 | 96 | 3.0 | 8.0 | 0.00 | 0.00 | 0.00 | 54 | 1009.9 |
| 20260508135013 | 55 | 170 | 3.0 | 7.0 | 0.00 | 0.00 | 0.00 | 56 | 1010.0 |
| 20260508134532 | 54 | 136 | 3.0 | 7.0 | 0.00 | 0.00 | 0.00 | 59 | 1010.0 |
| 20260508134010 | 53 | 132 | 2.0 | 7.0 | 0.00 | 0.00 | 0.00 | 57 | 1010.0 |
| 20260508133514 | 53 | 196 | 4.0 | 8.0 | 0.00 | 0.00 | 0.00 | 59 | 1010.1 |
| 20260508133034 | 52 | 159 | 2.0 | 8.0 | 0.00 | 0.00 | 0.00 | 60 | 1010.0 |
| 20260508132512 | 51 | 146 | 4.0 | 8.0 | 0.00 | 0.00 | 0.00 | 64 | 1010.0 |
| 20260508132013 | 50 | 200 | 3.0 | 8.0 | 0.00 | 0.00 | 0.00 | 63 | 1010.1 |
| 20260508131529 | 49 | 148 | 3.0 | 7.0 | 0.00 | 0.00 | 0.00 | 67 | 1010.1 |
| 20260508131014 | 48 | 178 | 2.0 | 6.0 | 0.00 | 0.00 | 0.00 | 71 | 1010.1 |
| 20260508130514 | 47 | 126 | 2.0 | 6.0 | 0.00 | 0.00 | 0.00 | 71 | 1010.1 |
| 20260508130027 | 47 | 159 | 2.0 | 6.0 | 0.00 | 0.00 | 0.00 | 72 | 1010.2 |
| 20260508125511 | 46 | 164 | 1.0 | 4.0 | 0.00 | 0.00 | 0.00 | 73 | 1010.1 |
| 20260508125014 | 45 | 170 | 2.0 | 6.0 | 0.00 | 0.00 | 0.00 | 74 | 1010.1 |
| 20260508124530 | 44 | 161 | 1.0 | 6.0 | 0.00 | 0.00 | 0.00 | 77 | 1010.2 |
| 20260508124014 | 44 | 157 | 3.0 | 6.0 | 0.00 | 0.00 | 0.00 | 78 | 1010.1 |
| 20260508123513 | 43 | 197 | 0.0 | 2.0 | 0.00 | 0.00 | 0.00 | 81 | 1010.2 |
| 20260508123030 | 42 | 0 | 0.0 | 4.0 | 0.00 | 0.00 | 0.00 | 82 | 1010.2 |
| 20260508122511 | 41 | 0 | 0.0 | 4.0 | 0.00 | 0.00 | 0.00 | 84 | 1010.2 |
| 20260508122018 | 40 | 229 | 1.0 | 4.0 | 0.00 | 0.00 | 0.00 | 85 | 1010.2 |
| 20260508121529 | 40 | 0 | 0.0 | 2.0 | 0.00 | 0.00 | 0.00 | 87 | 1010.2 |
| 20260508121051 | 39 | 0 | 0.0 | 4.0 | 0.00 | 0.00 | 0.00 | 88 | 1010.2 |
| 20260508120515 | 38 | 0 | 1.0 | 4.0 | 0.00 | 0.00 | 0.00 | 89 | 1010.2 |
| 20260508120031 | 38 | 0 | 0.0 | 3.0 | 0.00 | 0.00 | 0.00 | 90 | 1010.2 |
| 20260508115515 | 37 | 176 | 1.0 | 5.0 | 0.00 | 0.00 | 0.00 | 90 | 1010.2 |
| 20260508115014 | 36 | 0 | 1.0 | 5.0 | 0.00 | 0.00 | 0.00 | 91 | 1010.1 |
| 20260508114530 | 35 | 196 | 0.0 | 3.0 | 0.00 | 0.00 | 0.00 | 91 | 1010.1 |
| 20260508114014 | 35 | 195 | 1.0 | 3.0 | 0.00 | 0.00 | 0.00 | 90 | 1010.1 |
| 20260508113515 | 35 | 185 | 0.0 | 3.0 | 0.00 | 0.00 | 0.00 | 90 | 1010.2 |
| 20260508113033 | 34 | 207 | 0.0 | 3.0 | 0.00 | 0.00 | 0.00 | 90 | 1010.2 |
| 20260508112514 | 34 | 200 | 1.0 | 3.0 | 0.00 | 0.00 | 0.00 | 91 | 1010.2 |
| 20260508112014 | 33 | 205 | 1.0 | 3.0 | 0.00 | 0.00 | 0.00 | 90 | 1010.1 |
| 20260508111533 | 33 | 175 | 1.0 | 3.0 | 0.00 | 0.00 | 0.00 | 90 | 1010.1 |
| 20260508111016 | 32 | 229 | 0.0 | 3.0 | 0.00 | 0.00 | 0.00 | 89 | 1010.1 |
| 20260508110515 | 32 | 0 | 0.0 | 0.0 | 0.00 | 0.00 | 0.00 | 89 | 1010.0 |
| 20260508110032 | 32 | 0 | 0.0 | 0.0 | 0.00 | 0.00 | 0.00 | 87 | 1009.9 |
| 20260508105517 | 32 | 0 | 0.0 | 0.0 | 0.00 | 0.00 | 0.00 | 86 | 1010.0 |
| 20260508105014 | 32 | 0 | 0.0 | 0.0 | 0.00 | 0.00 | 0.00 | 86 | 1010.0 |
| 20260508104541 | 32 | 0 | 0.0 | 0.0 | 0.00 | 0.00 | 0.00 | 87 | 1010.0 |
| 20260508104015 | 33 | 0 | 0.0 | 0.0 | 0.00 | 0.00 | 0.00 | 86 | 1009.9 |
| 20260508103515 | 33 | 0 | 0.0 | 0.0 | 0.00 | 0.00 | 0.00 | 86 | 1010.0 |
| 20260508103042 | 33 | 0 | 0.0 | 2.0 | 0.00 | 0.00 | 0.00 | 87 | 1010.0 |
| 20260508102515 | 33 | 0 | 0.0 | 2.0 | 0.00 | 0.00 | 0.00 | 87 | 1010.1 |
| 20260508102016 | 33 | 0 | 0.0 | 3.0 | 0.00 | 0.00 | 0.00 | 87 | 1010.0 |
| 20260508101532 | 33 | 239 | 1.0 | 3.0 | 0.00 | 0.00 | 0.00 | 87 | 1010.1 |
| 20260508101014 | 33 | 234 | 1.0 | 3.0 | 0.00 | 0.00 | 0.00 | 87 | 1010.1 |
| 20260508100514 | 33 | 0 | 0.0 | 2.0 | 0.00 | 0.00 | 0.00 | 86 | 1010.1 |
| 20260508100033 | 34 | 0 | 0.0 | 2.0 | 0.00 | 0.00 | 0.00 | 87 | 1010.2 |
| 20260508095515 | 34 | 0 | 0.0 | 2.0 | 0.00 | 0.00 | 0.00 | 87 | 1010.1 |
| 20260508095015 | 34 | 215 | 0.0 | 3.0 | 0.00 | 0.00 | 0.00 | 87 | 1010.2 |
| 20260508094532 | 34 | 208 | 1.0 | 3.0 | 0.00 | 0.00 | 0.00 | 87 | 1010.1 |
| 20260508094015 | 33 | 0 | 0.0 | 2.0 | 0.00 | 0.00 | 0.00 | 87 | 1010.1 |
| 20260508093514 | 33 | 0 | 0.0 | 2.0 | 0.00 | 0.00 | 0.00 | 86 | 1010.1 |
| 20260508093029 | 33 | 0 | 0.0 | 2.0 | 0.00 | 0.00 | 0.00 | 86 | 1010.2 |
| 20260508092515 | 33 | 220 | 0.0 | 2.0 | 0.00 | 0.00 | 0.00 | 86 | 1010.2 |
| 20260508092015 | 33 | 0 | 0.0 | 3.0 | 0.00 | 0.00 | 0.00 | 86 | 1010.3 |
| 20260508091528 | 33 | 0 | 0.0 | 3.0 | 0.00 | 0.00 | 0.00 | 86 | 1010.3 |
| 20260508091016 | 33 | 219 | 1.0 | 2.0 | 0.00 | 0.00 | 0.00 | 86 | 1010.2 |
| 20260508090515 | 33 | 224 | 0.0 | 2.0 | 0.00 | 0.00 | 0.00 | 86 | 1010.3 |
| 20260508090032 | 33 | 0 | 0.0 | 0.0 | 0.00 | 0.00 | 0.00 | 86 | 1010.2 |
| 20260508085514 | 33 | 0 | 0.0 | 1.0 | 0.00 | 0.00 | 0.00 | 85 | 1010.4 |
| 20260508085015 | 33 | 0 | 0.0 | 1.0 | 0.00 | 0.00 | 0.00 | 85 | 1010.4 |
| 20260508084530 | 33 | 224 | 0.0 | 2.0 | 0.00 | 0.00 | 0.00 | 85 | 1010.5 |
| 20260508084015 | 33 | 0 | 0.0 | 2.0 | 0.00 | 0.00 | 0.00 | 85 | 1010.4 |
| 20260508083518 | 33 | 0 | 0.0 | 2.0 | 0.00 | 0.00 | 0.00 | 86 | 1010.6 |
| 20260508083031 | 33 | 0 | 0.0 | 3.0 | 0.00 | 0.00 | 0.00 | 86 | 1010.5 |
| 20260508082514 | 33 | 225 | 1.0 | 3.0 | 0.00 | 0.00 | 0.00 | 85 | 1010.5 |
| 20260508082014 | 33 | 0 | 0.0 | 0.0 | 0.00 | 0.00 | 0.00 | 86 | 1010.4 |
| 20260508081530 | 33 | 0 | 0.0 | 0.0 | 0.00 | 0.00 | 0.00 | 86 | 1010.4 |
| 20260508081014 | 33 | 0 | 0.0 | 0.0 | 0.00 | 0.00 | 0.00 | 86 | 1010.4 |
| 20260508080515 | 33 | 0 | 0.0 | 0.0 | 0.00 | 0.00 | 0.00 | 85 | 1010.5 |
| 20260508080031 | 33 | 0 | 0.0 | 0.0 | 0.00 | 0.00 | 0.00 | 85 | 1010.6 |
| 20260508075515 | 33 | 0 | 0.0 | 0.0 | 0.00 | 0.00 | 0.00 | 85 | 1010.6 |
| 20260508075019 | 33 | 0 | 0.0 | 0.0 | 0.00 | 0.00 | 0.00 | 85 | 1010.6 |
| 20260508074532 | 33 | 0 | 0.0 | 0.0 | 0.00 | 0.00 | 0.00 | 84 | 1010.6 |
| 20260508074015 | 33 | 0 | 0.0 | 0.0 | 0.00 | 0.00 | 0.00 | 84 | 1010.6 |
| 20260508073515 | 33 | 0 | 0.0 | 0.0 | 0.00 | 0.00 | 0.00 | 84 | 1010.7 |
| 20260508073028 | 33 | 0 | 0.0 | 0.0 | 0.00 | 0.00 | 0.00 | 83 | 1010.8 |
| 20260508072514 | 33 | 0 | 0.0 | 0.0 | 0.00 | 0.00 | 0.00 | 83 | 1010.9 |
| 20260508072012 | 34 | 0 | 0.0 | 0.0 | 0.00 | 0.00 | 0.00 | 83 | 1010.8 |
| 20260508071532 | 34 | 0 | 0.0 | 0.0 | 0.00 | 0.00 | 0.00 | 84 | 1011.0 |
| 20260508071014 | 34 | 0 | 0.0 | 0.0 | 0.00 | 0.00 | 0.00 | 83 | 1010.9 |
| 20260508070515 | 34 | 0 | 0.0 | 0.0 | 0.00 | 0.00 | 0.00 | 83 | 1011.0 |
| 20260508070054 | 34 | 0 | 0.0 | 0.0 | 0.00 | 0.00 | 0.00 | 83 | 1011.0 |
| 20260508065514 | 34 | 0 | 0.0 | 0.0 | 0.00 | 0.00 | 0.00 | 83 | 1011.1 |
| 20260508065015 | 34 | 0 | 0.0 | 0.0 | 0.00 | 0.00 | 0.00 | 83 | 1011.1 |
| 20260508064533 | 34 | 0 | 0.0 | 0.0 | 0.00 | 0.00 | 0.00 | 82 | 1011.1 |
| 20260508064018 | 34 | 0 | 0.0 | 0.0 | 0.00 | 0.00 | 0.00 | 82 | 1011.1 |
| 20260508063515 | 34 | 0 | 0.0 | 0.0 | 0.00 | 0.00 | 0.00 | 82 | 1011.0 |
| 20260508063030 | 35 | 0 | 0.0 | 0.0 | 0.00 | 0.00 | 0.00 | 82 | 1011.0 |
| 20260508062515 | 35 | 0 | 0.0 | 0.0 | 0.00 | 0.00 | 0.00 | 82 | 1011.0 |
| 20260508062013 | 35 | 0 | 0.0 | 0.0 | 0.00 | 0.00 | 0.00 | 82 | 1011.1 |
| 20260508061532 | 35 | 0 | 0.0 | 0.0 | 0.00 | 0.00 | 0.00 | 82 | 1011.1 |
| 20260508061016 | 35 | 0 | 0.0 | 0.0 | 0.00 | 0.00 | 0.00 | 81 | 1011.0 |
| 20260508060516 | 35 | 0 | 0.0 | 0.0 | 0.00 | 0.00 | 0.00 | 81 | 1011.2 |
| 20260508060034 | 35 | 0 | 0.0 | 0.0 | 0.00 | 0.00 | 0.00 | 81 | 1011.3 |
| 20260508055514 | 35 | 0 | 0.0 | 0.0 | 0.00 | 0.00 | 0.00 | 81 | 1011.4 |
| 20260508055014 | 35 | 0 | 0.0 | 0.0 | 0.00 | 0.00 | 0.00 | 81 | 1011.5 |
| 20260508054532 | 35 | 0 | 0.0 | 0.0 | 0.00 | 0.00 | 0.00 | 81 | 1011.4 |
| 20260508054014 | 35 | 0 | 0.0 | 0.0 | 0.00 | 0.00 | 0.00 | 81 | 1011.4 |
| 20260508053516 | 35 | 0 | 0.0 | 0.0 | 0.00 | 0.00 | 0.00 | 81 | 1011.5 |
| 20260508053030 | 35 | 0 | 0.0 | 0.0 | 0.00 | 0.00 | 0.00 | 80 | 1011.4 |
| 20260508052513 | 35 | 0 | 0.0 | 0.0 | 0.00 | 0.00 | 0.00 | 80 | 1011.4 |
| 20260508052015 | 36 | 0 | 0.0 | 0.0 | 0.00 | 0.00 | 0.00 | 80 | 1011.5 |
| 20260508051531 | 36 | 0 | 0.0 | 0.0 | 0.00 | 0.00 | 0.00 | 80 | 1011.6 |
| 20260508051015 | 36 | 0 | 0.0 | 0.0 | 0.00 | 0.00 | 0.00 | 80 | 1011.6 |
| 20260508050515 | 36 | 0 | 0.0 | 0.0 | 0.00 | 0.00 | 0.00 | 80 | 1011.6 |
| 20260508050030 | 36 | 0 | 0.0 | 0.0 | 0.00 | 0.00 | 0.00 | 80 | 1011.5 |
| 20260508045514 | 36 | 0 | 0.0 | 0.0 | 0.00 | 0.00 | 0.00 | 80 | 1011.5 |
| 20260508045015 | 36 | 0 | 0.0 | 0.0 | 0.00 | 0.00 | 0.00 | 80 | 1011.5 |
| 20260508044532 | 36 | 0 | 0.0 | 0.0 | 0.00 | 0.00 | 0.00 | 81 | 1011.5 |
| 20260508044015 | 36 | 0 | 0.0 | 0.0 | 0.00 | 0.00 | 0.00 | 81 | 1011.4 |
| 20260508043514 | 36 | 0 | 0.0 | 0.0 | 0.00 | 0.00 | 0.00 | 81 | 1011.4 |
| 20260508043050 | 36 | 0 | 0.0 | 0.0 | 0.00 | 0.00 | 0.00 | 81 | 1011.3 |
| 20260508042515 | 36 | 0 | 0.0 | 0.0 | 0.00 | 0.00 | 0.00 | 81 | 1011.3 |
| 20260508042015 | 36 | 0 | 0.0 | 0.0 | 0.00 | 0.00 | 0.00 | 81 | 1011.3 |
| 20260508041530 | 36 | 0 | 0.0 | 0.0 | 0.00 | 0.00 | 0.00 | 80 | 1011.2 |
| 20260508041015 | 36 | 0 | 0.0 | 0.0 | 0.00 | 0.00 | 0.00 | 80 | 1011.2 |
| 20260508040515 | 36 | 0 | 0.0 | 0.0 | 0.00 | 0.00 | 0.00 | 79 | 1011.1 |
| 20260508040035 | 36 | 0 | 0.0 | 0.0 | 0.00 | 0.00 | 0.00 | 79 | 1011.1 |
| 20260508035515 | 36 | 0 | 0.0 | 0.0 | 0.00 | 0.00 | 0.00 | 79 | 1011.0 |
| 20260508035015 | 36 | 0 | 0.0 | 0.0 | 0.00 | 0.00 | 0.00 | 78 | 1011.0 |
| 20260508034533 | 36 | 0 | 0.0 | 0.0 | 0.00 | 0.00 | 0.00 | 78 | 1011.0 |
| 20260508034018 | 36 | 0 | 0.0 | 0.0 | 0.00 | 0.00 | 0.00 | 78 | 1010.9 |
| 20260508033515 | 37 | 0 | 0.0 | 0.0 | 0.00 | 0.00 | 0.00 | 78 | 1010.9 |
| 20260508033032 | 37 | 0 | 0.0 | 0.0 | 0.00 | 0.00 | 0.00 | 77 | 1010.8 |
| 20260508032515 | 37 | 0 | 0.0 | 0.0 | 0.00 | 0.00 | 0.00 | 77 | 1010.9 |
| 20260508032015 | 37 | 0 | 0.0 | 0.0 | 0.00 | 0.00 | 0.00 | 77 | 1010.9 |
| 20260508031531 | 37 | 0 | 0.0 | 0.0 | 0.00 | 0.00 | 0.00 | 76 | 1010.8 |
| 20260508031013 | 37 | 0 | 0.0 | 0.0 | 0.00 | 0.00 | 0.00 | 75 | 1010.9 |
| 20260508030515 | 38 | 0 | 0.0 | 0.0 | 0.00 | 0.00 | 0.00 | 75 | 1010.9 |
| 20260508030042 | 38 | 0 | 0.0 | 0.0 | 0.00 | 0.00 | 0.00 | 75 | 1010.8 |
| 20260508025515 | 38 | 0 | 0.0 | 0.0 | 0.00 | 0.00 | 0.00 | 74 | 1010.8 |
| 20260508025014 | 38 | 0 | 0.0 | 0.0 | 0.00 | 0.00 | 0.00 | 73 | 1010.8 |
| 20260508024533 | 39 | 0 | 0.0 | 0.0 | 0.00 | 0.00 | 0.00 | 72 | 1010.9 |
| 20260508024014 | 39 | 0 | 0.0 | 0.0 | 0.00 | 0.00 | 0.00 | 72 | 1010.8 |
| 20260508023514 | 39 | 0 | 0.0 | 0.0 | 0.00 | 0.00 | 0.00 | 72 | 1010.7 |
| 20260508023030 | 40 | 0 | 0.0 | 0.0 | 0.00 | 0.00 | 0.00 | 70 | 1010.7 |
| 20260508022516 | 40 | 0 | 0.0 | 1.0 | 0.00 | 0.00 | 0.00 | 70 | 1010.7 |
| 20260508022015 | 40 | 0 | 0.0 | 3.0 | 0.00 | 0.00 | 0.00 | 70 | 1010.6 |
| 20260508021533 | 40 | 0 | 0.0 | 3.0 | 0.00 | 0.00 | 0.00 | 68 | 1010.6 |
| 20260508021017 | 41 | 122 | 1.0 | 3.0 | 0.00 | 0.00 | 0.00 | 68 | 1010.4 |
| 20260508020517 | 41 | 111 | 0.0 | 3.0 | 0.00 | 0.00 | 0.00 | 67 | 1010.4 |
| 20260508020029 | 41 | 0 | 0.0 | 3.0 | 0.00 | 0.00 | 0.00 | 67 | 1010.4 |
| 20260508015514 | 41 | 0 | 0.0 | 3.0 | 0.00 | 0.00 | 0.00 | 66 | 1010.4 |
| 20260508015014 | 41 | 112 | 1.0 | 3.0 | 0.00 | 0.00 | 0.00 | 66 | 1010.3 |
| 20260508014530 | 41 | 115 | 0.0 | 3.0 | 0.00 | 0.00 | 0.00 | 65 | 1010.2 |
| 20260508014014 | 41 | 0 | 0.0 | 3.0 | 0.00 | 0.00 | 0.00 | 65 | 1010.2 |
| 20260508013519 | 42 | 0 | 1.0 | 3.0 | 0.00 | 0.00 | 0.00 | 64 | 1010.1 |
| 20260508013028 | 42 | 105 | 1.0 | 3.0 | 0.00 | 0.00 | 0.00 | 64 | 1010.0 |
| 20260508012513 | 42 | 122 | 0.0 | 2.0 | 0.00 | 0.00 | 0.00 | 64 | 1010.0 |
| 20260508012016 | 42 | 0 | 0.0 | 2.0 | 0.00 | 0.00 | 0.00 | 63 | 1009.9 |
| 20260508011530 | 43 | 111 | 0.0 | 2.0 | 0.00 | 0.00 | 0.00 | 63 | 1010.0 |
| 20260508011014 | 43 | 0 | 0.0 | 2.0 | 0.00 | 0.00 | 0.00 | 63 | 1009.9 |
| 20260508010514 | 43 | 0 | 0.0 | 3.0 | 0.00 | 0.00 | 0.00 | 62 | 1009.9 |
| 20260508010031 | 43 | 0 | 1.0 | 4.0 | 0.00 | 0.00 | 0.00 | 62 | 1009.9 |
| 20260508005517 | 43 | 132 | 1.0 | 4.0 | 0.00 | 0.00 | 0.00 | 62 | 1009.8 |
| 20260508005016 | 44 | 106 | 2.0 | 4.0 | 0.00 | 0.00 | 0.00 | 62 | 1009.8 |
| 20260508004531 | 44 | 0 | 0.0 | 4.0 | 0.00 | 0.00 | 0.00 | 63 | 1009.7 |
| 20260508004017 | 44 | 119 | 0.0 | 4.0 | 0.00 | 0.00 | 0.00 | 63 | 1009.7 |
| 20260508003515 | 44 | 107 | 2.0 | 7.0 | 0.00 | 0.00 | 0.00 | 63 | 1009.7 |
| 20260508003030 | 45 | 111 | 3.0 | 7.0 | 0.00 | 0.00 | 0.00 | 62 | 1009.6 |
| 20260508002515 | 45 | 74 | 1.0 | 4.0 | 0.00 | 0.00 | 0.00 | 64 | 1009.5 |
| 20260508002015 | 45 | 43 | 1.0 | 4.0 | 0.00 | 0.00 | 0.00 | 63 | 1009.5 |
| 20260508001529 | 45 | 97 | 2.0 | 4.0 | 0.00 | 0.00 | 0.00 | 64 | 1009.4 |
| 20260508001015 | 46 | 82 | 1.0 | 6.0 | 0.00 | 0.00 | 0.00 | 63 | 1009.5 |
| 20260508000517 | 46 | 107 | 2.0 | 6.0 | 0.00 | 0.00 | 0.00 | 64 | 1009.4 |
| 20260508000031 | 47 | 67 | 2.0 | 7.0 | 0.00 | 0.00 | 0.00 | 63 | 1009.5 |
| 20260507235515 | 47 | 123 | 3.0 | 8.0 | 0.00 | 0.00 | 0.00 | 62 | 1009.3 |
| 20260507235014 | 48 | 108 | 3.0 | 8.0 | 0.00 | 0.00 | 0.00 | 61 | 1009.2 |
| 20260507234539 | 48 | 103 | 3.0 | 7.0 | 0.00 | 0.00 | 0.00 | 60 | 1009.2 |
| 20260507234014 | 48 | 59 | 1.0 | 8.0 | 0.00 | 0.00 | 0.00 | 59 | 1009.3 |
| 20260507233514 | 49 | 104 | 3.0 | 8.0 | 0.00 | 0.00 | 0.00 | 57 | 1009.3 |
| 20260507233029 | 49 | 51 | 3.0 | 6.0 | 0.00 | 0.00 | 0.00 | 57 | 1009.3 |
| 20260507232512 | 50 | 84 | 2.0 | 6.0 | 0.00 | 0.00 | 0.00 | 59 | 1009.3 |
| 20260507232011 | 50 | 115 | 2.0 | 6.0 | 0.00 | 0.00 | 0.00 | 59 | 1009.4 |
| 20260507231530 | 50 | 0 | 1.0 | 6.0 | 0.00 | 0.00 | 0.00 | 60 | 1009.4 |
| 20260507231014 | 50 | 87 | 2.0 | 8.0 | 0.00 | 0.00 | 0.00 | 58 | 1009.4 |
| 20260507230514 | 50 | 86 | 2.0 | 8.0 | 0.00 | 0.00 | 0.00 | 58 | 1009.5 |
| 20260507230032 | 50 | 44 | 2.0 | 6.0 | 0.00 | 0.00 | 0.00 | 58 | 1009.6 |
| 20260507225519 | 50 | 88 | 2.0 | 6.0 | 0.00 | 0.00 | 0.00 | 57 | 1009.5 |
| 20260507225014 | 50 | 33 | 3.0 | 6.0 | 0.00 | 0.00 | 0.00 | 57 | 1009.5 |
| 20260507224530 | 51 | 42 | 1.0 | 8.0 | 0.00 | 0.00 | 0.00 | 56 | 1009.6 |
| 20260507224014 | 51 | 73 | 3.0 | 8.0 | 0.00 | 0.00 | 0.00 | 55 | 1009.5 |
| 20260507223514 | 52 | 118 | 3.0 | 8.0 | 0.00 | 0.00 | 0.00 | 55 | 1009.4 |
| 20260507223029 | 51 | 110 | 3.0 | 8.0 | 0.00 | 0.00 | 0.00 | 53 | 1009.6 |
| 20260507222514 | 51 | 99 | 2.0 | 6.0 | 0.00 | 0.00 | 0.00 | 53 | 1009.6 |
| 20260507222014 | 51 | 47 | 2.0 | 6.0 | 0.00 | 0.00 | 0.00 | 53 | 1009.7 |
| 20260507221533 | 52 | 88 | 1.0 | 7.0 | 0.00 | 0.00 | 0.00 | 50 | 1009.7 |
| 20260507221014 | 52 | 114 | 3.0 | 7.0 | 0.00 | 0.00 | 0.00 | 49 | 1009.5 |
| 20260507220513 | 52 | 106 | 3.0 | 8.0 | 0.00 | 0.00 | 0.00 | 49 | 1009.5 |
| 20260507220029 | 53 | 131 | 3.0 | 9.0 | 0.00 | 0.00 | 0.00 | 50 | 1009.4 |
| 20260507215514 | 53 | 115 | 5.0 | 11.0 | 0.00 | 0.00 | 0.00 | 48 | 1009.5 |
| 20260507215016 | 53 | 102 | 3.0 | 11.0 | 0.00 | 0.00 | 0.00 | 48 | 1009.5 |
| 20260507214530 | 53 | 108 | 3.0 | 11.0 | 0.00 | 0.00 | 0.00 | 50 | 1009.4 |
| 20260507214013 | 53 | 22 | 3.0 | 12.0 | 0.00 | 0.00 | 0.00 | 49 | 1009.4 |
| 20260507213514 | 53 | 120 | 6.0 | 12.0 | 0.00 | 0.00 | 0.00 | 48 | 1009.4 |
| 20260507213030 | 53 | 129 | 4.0 | 10.0 | 0.00 | 0.00 | 0.00 | 49 | 1009.5 |
| 20260507212514 | 53 | 80 | 6.0 | 11.0 | 0.00 | 0.00 | 0.00 | 50 | 1009.5 |
| 20260507212014 | 52 | 140 | 5.0 | 11.0 | 0.00 | 0.00 | 0.00 | 53 | 1009.6 |
| 20260507211532 | 52 | 150 | 5.0 | 10.0 | 0.00 | 0.00 | 0.00 | 51 | 1009.5 |
| 20260507211014 | 52 | 105 | 3.0 | 10.0 | 0.00 | 0.00 | 0.00 | 53 | 1009.5 |
| 20260507210515 | 52 | 86 | 3.0 | 10.0 | 0.00 | 0.00 | 0.00 | 53 | 1009.4 |
| 20260507210029 | 51 | 137 | 5.0 | 12.0 | 0.00 | 0.00 | 0.00 | 52 | 1009.4 |
| 20260507205514 | 52 | 95 | 6.0 | 15.0 | 0.00 | 0.00 | 0.00 | 49 | 1009.5 |
| 20260507205014 | 52 | 108 | 5.0 | 15.0 | 0.00 | 0.00 | 0.00 | 51 | 1009.6 |
| 20260507204531 | 52 | 135 | 5.0 | 13.0 | 0.00 | 0.00 | 0.00 | 52 | 1009.6 |
| 20260507204014 | 52 | 127 | 7.0 | 13.0 | 0.00 | 0.00 | 0.00 | 52 | 1009.6 |
| 20260507203514 | 53 | 99 | 7.0 | 13.0 | 0.00 | 0.00 | 0.00 | 50 | 1009.7 |
| 20260507203032 | 53 | 98 | 6.0 | 13.0 | 0.00 | 0.00 | 0.00 | 52 | 1009.9 |
| 20260507202516 | 52 | 103 | 5.0 | 10.0 | 0.00 | 0.00 | 0.00 | 57 | 1010.0 |
| 20260507202013 | 51 | 126 | 4.0 | 8.0 | 0.00 | 0.00 | 0.00 | 61 | 1009.9 |
| 20260507201538 | 50 | 111 | 2.0 | 7.0 | 0.00 | 0.00 | 0.00 | 60 | 1010.0 |
| 20260507201015 | 50 | 100 | 4.0 | 10.0 | 0.00 | 0.00 | 0.00 | 60 | 1010.1 |
| 20260507200515 | 49 | 123 | 3.0 | 10.0 | 0.00 | 0.00 | 0.00 | 61 | 1010.3 |
| 20260507200029 | 49 | 92 | 4.0 | 8.0 | 0.00 | 0.00 | 0.00 | 63 | 1010.5 |
| 20260507195514 | 49 | 107 | 2.0 | 6.0 | 0.00 | 0.00 | 0.00 | 67 | 1010.6 |
| 20260507195014 | 48 | 132 | 1.0 | 6.0 | 0.00 | 0.00 | 0.00 | 63 | 1010.8 |
| 20260507194541 | 48 | 122 | 1.0 | 7.0 | 0.00 | 0.00 | 0.00 | 63 | 1011.0 |
| 20260507194012 | 48 | 117 | 2.0 | 7.0 | 0.00 | 0.00 | 0.00 | 60 | 1011.0 |
| 20260507193514 | 48 | 120 | 2.0 | 7.0 | 0.00 | 0.00 | 0.00 | 55 | 1011.0 |
| 20260507193032 | 48 | 82 | 4.0 | 9.0 | 0.00 | 0.00 | 0.00 | 55 | 1010.9 |
| 20260507192513 | 48 | 84 | 2.0 | 9.0 | 0.00 | 0.00 | 0.00 | 55 | 1010.9 |
| 20260507192013 | 49 | 103 | 3.0 | 9.0 | 0.00 | 0.00 | 0.00 | 52 | 1010.9 |
| 20260507191534 | 50 | 106 | 5.0 | 10.0 | 0.00 | 0.00 | 0.00 | 51 | 1010.9 |
| 20260507191013 | 50 | 118 | 4.0 | 10.0 | 0.00 | 0.00 | 0.00 | 51 | 1010.7 |
| 20260507190514 | 51 | 121 | 5.0 | 11.0 | 0.00 | 0.00 | 0.00 | 50 | 1010.7 |
| 20260507190030 | 51 | 115 | 5.0 | 11.0 | 0.00 | 0.00 | 0.00 | 51 | 1010.7 |
| 20260507185513 | 51 | 80 | 4.0 | 10.0 | 0.00 | 0.00 | 0.00 | 51 | 1010.6 |
| 20260507185015 | 50 | 134 | 3.0 | 10.0 | 0.00 | 0.00 | 0.00 | 50 | 1010.8 |
| 20260507184536 | 51 | 129 | 6.0 | 10.0 | 0.00 | 0.00 | 0.00 | 49 | 1011.0 |
| 20260507184014 | 51 | 112 | 5.0 | 11.0 | 0.00 | 0.00 | 0.00 | 50 | 1011.0 |
| 20260507183514 | 51 | 71 | 5.0 | 13.0 | 0.00 | 0.00 | 0.00 | 51 | 1011.1 |
| 20260507183041 | 51 | 102 | 6.0 | 13.0 | 0.00 | 0.00 | 0.00 | 49 | 1011.1 |
| 20260507182511 | 51 | 111 | 6.0 | 13.0 | 0.00 | 0.00 | 0.00 | 51 | 1011.2 |
| 20260507182013 | 51 | 128 | 5.0 | 11.0 | 0.00 | 0.00 | 0.00 | 50 | 1011.2 |
| 20260507181529 | 51 | 116 | 5.0 | 11.0 | 0.00 | 0.00 | 0.00 | 50 | 1011.2 |
| 20260507181010 | 52 | 117 | 5.0 | 12.0 | 0.00 | 0.00 | 0.00 | 47 | 1011.2 |
| 20260507180514 | 53 | 100 | 6.0 | 12.0 | 0.00 | 0.00 | 0.00 | 46 | 1011.3 |
| 20260507180027 | 55 | 119 | 3.0 | 8.0 | 0.00 | 0.00 | 0.00 | 45 | 1011.2 |
| 20260507175514 | 55 | 104 | 3.0 | 10.0 | 0.00 | 0.00 | 0.00 | 42 | 1011.2 |
| 20260507175014 | 55 | 110 | 4.0 | 10.0 | 0.00 | 0.00 | 0.00 | 41 | 1011.3 |
| 20260507174533 | 56 | 164 | 4.0 | 10.0 | 0.00 | 0.00 | 0.00 | 41 | 1011.3 |
| 20260507174013 | 55 | 57 | 2.0 | 7.0 | 0.00 | 0.00 | 0.00 | 42 | 1011.3 |
| 20260507173510 | 55 | 136 | 2.0 | 8.0 | 0.00 | 0.00 | 0.00 | 42 | 1011.5 |
| 20260507173033 | 56 | 134 | 2.0 | 8.0 | 0.00 | 0.00 | 0.00 | 43 | 1011.5 |
| 20260507172514 | 55 | 211 | 2.0 | 11.0 | 0.00 | 0.00 | 0.00 | 45 | 1011.6 |
| 20260507172014 | 55 | 273 | 3.0 | 13.0 | 0.00 | 0.00 | 0.00 | 49 | 1011.6 |
| 20260507171531 | 55 | 242 | 4.0 | 13.0 | 0.00 | 0.00 | 0.00 | 42 | 1011.8 |
| 20260507171013 | 55 | 229 | 2.0 | 10.0 | 0.00 | 0.00 | 0.00 | 43 | 1011.8 |
| 20260507170511 | 54 | 213 | 5.0 | 11.0 | 0.00 | 0.00 | 0.00 | 43 | 1011.9 |
| 20260507170030 | 54 | 221 | 4.0 | 11.0 | 0.00 | 0.00 | 0.00 | 43 | 1012.0 |
| 20260507165511 | 54 | 209 | 3.0 | 11.0 | 0.00 | 0.00 | 0.00 | 46 | 1012.0 |
| 20260507165014 | 53 | 174 | 1.0 | 7.0 | 0.00 | 0.00 | 0.00 | 44 | 1012.1 |
| 20260507164531 | 53 | 215 | 3.0 | 8.0 | 0.00 | 0.00 | 0.00 | 44 | 1012.2 |
| 20260507164011 | 52 | 159 | 3.0 | 8.0 | 0.00 | 0.00 | 0.00 | 44 | 1012.1 |
| 20260507163513 | 52 | 28 | 3.0 | 7.0 | 0.00 | 0.00 | 0.00 | 46 | 1012.3 |
| 20260507163031 | 52 | 24 | 2.0 | 7.0 | 0.00 | 0.00 | 0.00 | 49 | 1012.3 |
| 20260507162511 | 53 | 5 | 1.0 | 7.0 | 0.00 | 0.00 | 0.00 | 45 | 1012.4 |
| 20260507162011 | 53 | 0 | 1.0 | 7.0 | 0.00 | 0.00 | 0.00 | 45 | 1012.4 |
| 20260507161530 | 52 | 121 | 2.0 | 7.0 | 0.00 | 0.00 | 0.00 | 49 | 1012.5 |
| 20260507161013 | 52 | 236 | 3.0 | 8.0 | 0.00 | 0.00 | 0.00 | 48 | 1012.7 |
| 20260507160518 | 51 | 300 | 3.0 | 12.0 | 0.00 | 0.00 | 0.00 | 48 | 1012.6 |
| 20260507160034 | 51 | 286 | 4.0 | 12.0 | 0.00 | 0.00 | 0.00 | 50 | 1012.8 |
| 20260507155517 | 51 | 0 | 2.0 | 10.0 | 0.00 | 0.00 | 0.00 | 50 | 1012.9 |
| 20260507155014 | 51 | 232 | 4.0 | 10.0 | 0.00 | 0.00 | 0.00 | 48 | 1013.0 |
| 20260507154535 | 50 | 235 | 5.0 | 9.0 | 0.00 | 0.00 | 0.00 | 49 | 1013.1 |
| 20260507154012 | 50 | 192 | 1.0 | 7.0 | 0.00 | 0.00 | 0.00 | 50 | 1013.1 |
| 20260507153513 | 49 | 31 | 3.0 | 9.0 | 0.00 | 0.00 | 0.00 | 51 | 1013.2 |
| 20260507153032 | 48 | 201 | 2.0 | 9.0 | 0.00 | 0.00 | 0.00 | 53 | 1013.2 |
| 20260507152514 | 48 | 259 | 1.0 | 9.0 | 0.00 | 0.00 | 0.00 | 51 | 1013.4 |
| 20260507152011 | 48 | 250 | 3.0 | 9.0 | 0.00 | 0.00 | 0.00 | 50 | 1013.5 |
| 20260507151528 | 48 | 269 | 3.0 | 8.0 | 0.00 | 0.00 | 0.00 | 55 | 1013.6 |
| 20260507151014 | 47 | 212 | 4.0 | 8.0 | 0.00 | 0.00 | 0.00 | 52 | 1013.6 |
| 20260507150516 | 46 | 0 | 2.0 | 8.0 | 0.00 | 0.00 | 0.00 | 55 | 1013.5 |
| 20260507150030 | 45 | 225 | 5.0 | 8.0 | 0.00 | 0.00 | 0.00 | 55 | 1013.5 |
| 20260507145514 | 45 | 227 | 3.0 | 8.0 | 0.00 | 0.00 | 0.00 | 56 | 1013.6 |